Temp
9 9 9 9 9 9 9 9 9 9 9 9 9 9 9 9 9 9 9 9 10 11 11 11 11 11 12 14 15 16 16 16 15 15 17 19 19 19 19 20 21 20 21 23 23 23 22
9 9 9 9 9 9 9 9 8 8 8 8 9 9 9 9 8 8 8 9 9 11 11 10 11 11 12 14 17 16 17 16 16 15 16 19 20 20 20 20 20 22 21 21 22 22 22
9 9 9 9 9 9 9 8 8 8 8 8 8 8 8 8 8 8 8 8 9 9 11 10 11 11 14 15 17 16 16 17 18 16 17 18 18 18 19 19 20 20 18 19 20 20 21
9 8 9 9 8 9 8 8 7 7 7 8 7 8 8 8 7 8 7 8 8 9 11 10 11 12 13 15 16 15 16 17 17 17 17 17 17 17 17 18 19 18 18 17 21 21 21
8 8 8 9 9 8 8 7 7 7 8 7 7 7 7 7 7 7 7 7 8 9 10 10 11 12 14 14 14 15 16 17 17 17 16 16 17 17 16 17 17 18 17 18 20 22 22
8 8 8 8 7 7 7 7 7 7 7 7 7 6 7 7 7 7 7 7 8 9 10 10 12 12 14 15 15 15 16 17 17 18 16 15 15 15 15 16 16 18 17 18 19 21 21
8 8 7 8 8 7 7 7 6 6 6 6 6 6 6 6 6 7 7 7 9 10 10 12 12 15 15 15 15 15 16 17 17 17 16 16 16 15 16 17 18 19 19 18 20 22 20
7 7 7 7 7 7 6 6 6 6 6 6 6 6 6 6 6 6 6 7 8 8 10 11 14 16 15 15 14 15 16 16 15 14 16 15 14 17 18 19 18 18 17 17 19 20 19
7 7 7 6 6 6 6 6 6 6 6 6 6 6 6 6 6 6 7 8 7 7 10 11 14 14 14 15 15 15 16 16 15 15 14 15 17 17 17 17 16 16 16 16 16 18 18
7 7 6 6 6 6 6 6 6 6 6 6 7 6 6 5 6 7 8 10 7 6 9 11 12 14 14 15 15 16 16 16 15 14 15 15 17 17 16 16 16 15 17 17 17 15 14
7 7 6 6 7 6 6 6 6 6 7 6 6 6 6 6 6 7 8 7 8 7 12 10 12 15 14 15 14 14 16 16 15 15 15 15 16 15 15 16 17 16 16 15 15 14 12
7 7 6 6 6 6 6 6 6 6 6 6 6 6 6 6 6 7 7 7 7 9 11 10 10 12 12 14 14 14 14 15 16 16 16 16 15 16 16 16 16 15 15 14 14 13 10
7 6 6 6 6 6 6 6 6 6 6 6 6 7 6 6 7 8 7 8 8 9 10 10 11 12 13 13 13 13 13 12 13 11 12 14 14 15 15 15 15 15 14 11 11 11 10
6 6 6 6 6 6 6 6 6 6 6 6 6 6 7 7 7 8 7 8 9 11 11 13 12 12 12 13 13 13 12 12 14 14 13 11 12 14 14 14 14 13 14 11 13 12 13
6 6 5 6 6 6 6 6 6 6 6 6 5 6 7 7 7 8 8 9 10 13 13 12 12 11 12 13 13 12 12 12 14 14 13 12 14 15 15 15 15 13 12 14 12 13 10
6 6 5 5 6 6 5 6 6 6 6 5 6 6 7 7 7 8 8 10 8 14 13 14 12 14 12 12 13 13 13 14 14 15 15 15 13 15 15 15 15 14 14 10 11 8 11
6 6 6 5 5 5 6 6 6 6 5 6 6 6 7 7 8 8 9 8 11 15 15 15 14 13 14 13 14 13 13 15 15 15 15 15 14 13 12 12 12 12 12 12 13 12 9
6 6 6 6 5 5 5 5 5 5 5 6 5 6 6 8 8 8 9 8 13 14 15 16 16 15 14 14 14 14 15 15 16 16 14 15 13 11 12 14 14 14 13 13 11 10 11
6 6 6 5 5 5 5 5 5 5 6 6 5 6 7 6 9 9 7 11 14 14 15 16 15 16 15 14 13 15 16 15 16 15 15 14 12 10 11 14 14 14 14 14 13 13 11
5 6 5 5 5 5 5 5 5 5 6 6 6 7 8 7 10 9 9 12 11 14 15 16 16 16 15 15 16 15 14 14 15 15 14 15 14 10 10 13 13 10 12 13 13 11 12
5 5 5 5 5 5 5 5 5 5 6 6 6 8 9 10 11 10 11 13 13 14 15 16 15 16 16 15 15 15 15 13 14 13 14 14 11 10 12 13 13 12 13 13 11 11 11
5 5 5 5 5 5 5 5 5 5 6 6 7 7 7 12 13 12 12 11 14 14 14 15 15 16 16 16 15 15 15 15 14 13 13 13 9 10 11 12 12 11 12 13 13 12 12
5 5 5 5 5 5 5 4 4 4 5 5 6 6 6 12 14 14 14 13 14 15 14 15 15 15 15 13 14 14 14 14 14 13 13 11 10 10 11 13 12 12 13 14 13 13 13
5 5 5 5 4 4 4 4 4 4 4 4 5 6 7 12 13 15 15 15 14 14 14 14 14 14 13 15 15 15 14 13 13 13 13 11 10 10 11 10 12 16 14 14 13 14 15
5 5 4 4 4 4 4 4 4 4 4 4 4 5 7 9 14 15 15 15 14 14 14 13 14 14 14 14 13 14 14 13 14 14 12 12 10 11 12 12 14 17 16 16 14 14 15
4 4 4 4 4 4 4 4 4 4 4 4 4 4 5 7 12 14 14 15 13 13 13 13 13 13 14 13 13 13 14 14 14 12 12 12 11 11 11 12 13 16 16 16 15 13 14
4 4 4 4 4 4 4 4 4 4 4 4 4 4 4 7 11 11 14 13 15 14 12 12 12 12 12 13 12 13 13 15 14 14 12 11 11 11 12 12 13 17 16 15 14 14 14
4 4 4 4 4 4 4 4 4 4 4 4 4 4 4 5 7 10 13 14 14 13 13 12 11 11 11 11 12 12 11 13 13 15 14 13 12 12 12 12 11 17 16 16 14 14 15
4 4 4 4 4 4 4 4 4 4 4 4 4 4 4 3 6 7 9 11 11 12 13 12 13 13 12 11 10 11 12 12 13 13 16 14 15 16 14 13 16 17 15 16 14 13 13
Height
822 818 814 810 806 801 797 794 789 786 782 779 776 771 768 765 763 759 755 753 751 750 752 754 755 757 758 758 751 746 746 749 753 756 756 755 758 760 763 756 756 759 756 749 746 745 749
820 816 813 809 804 800 795 791 787 783 779 775 772 769 766 762 759 757 754 751 748 746 748 752 752 755 757 754 745 746 747 749 751 753 754 753 753 752 754 753 755 751 754 753 748 746 750
818 815 810 806 802 797 793 788 783 780 776 772 769 766 763 760 756 753 750 748 744 742 745 749 748 753 752 746 744 745 746 747 748 750 751 752 754 755 754 757 751 756 766 758 753 750 751
816 813 809 804 799 794 789 784 779 776 773 769 765 762 759 757 754 750 747 744 741 739 741 744 748 751 746 739 743 744 744 745 747 747 749 753 755 757 760 758 759 766 767 773 741 740 744
815 811 806 802 798 792 786 781 776 773 769 765 762 759 755 753 750 747 743 740 738 736 732 740 746 747 742 737 739 740 743 743 746 748 751 753 756 759 763 765 768 765 773 762 749 735 738
812 808 804 800 796 790 784 778 774 769 765 761 758 755 753 750 746 744 741 737 735 734 734 738 742 749 735 730 733 737 741 742 745 748 753 756 758 763 765 767 773 762 766 758 753 740 740
811 808 803 797 793 787 782 776 771 766 761 758 755 752 749 746 743 741 740 737 734 731 728 725 728 722 721 727 733 737 740 742 745 749 755 753 758 762 757 757 754 750 754 759 746 735 744
811 806 801 795 790 785 779 774 768 763 759 755 752 749 745 742 740 738 738 737 733 731 724 723 721 722 725 727 733 737 738 742 749 754 752 762 766 751 748 747 751 753 760 762 752 743 746
810 804 798 793 787 782 777 771 766 761 756 753 749 746 742 740 737 734 732 730 730 731 723 720 719 724 727 728 729 734 738 739 748 754 758 759 751 750 753 755 761 762 764 765 764 753 750
808 801 796 791 786 780 774 769 764 759 754 750 746 743 739 737 736 730 727 723 726 733 725 720 721 721 727 724 729 733 736 740 747 755 754 758 749 752 755 758 757 768 755 759 761 768 775
807 800 794 789 784 778 773 767 762 757 751 747 743 739 735 733 730 729 726 724 723 731 698 719 721 718 723 724 727 737 738 742 747 748 756 756 753 757 760 756 754 763 760 765 768 774 780
806 799 793 788 782 777 771 765 760 754 749 744 739 733 726 722 721 721 725 724 727 723 702 716 720 721 726 725 728 735 741 743 742 746 748 750 752 752 754 754 758 763 765 769 773 777 798
804 799 792 786 781 775 769 764 758 752 747 741 735 725 719 717 717 717 722 724 727 717 714 720 718 720 724 727 734 738 744 750 752 765 765 756 757 753 754 760 761 764 771 790 792 787 785
802 798 791 785 779 774 768 762 756 750 745 738 731 721 716 716 717 716 723 726 722 700 707 708 714 721 726 726 736 740 747 751 747 747 753 767 765 755 753 758 763 767 770 784 772 769 757
801 797 790 785 779 773 766 760 755 749 742 735 728 721 718 719 718 720 721 722 709 694 698 705 715 725 729 728 732 741 746 748 744 746 752 757 751 742 748 752 754 767 777 766 775 765 782
800 796 789 784 778 772 766 760 753 747 740 732 727 726 723 724 723 724 725 714 716 692 698 705 712 711 725 729 730 734 742 736 741 741 740 741 753 746 750 752 754 759 760 783 783 804 766
800 795 788 783 778 771 765 759 753 746 737 728 727 727 728 728 728 727 722 724 711 699 699 700 705 710 714 725 725 732 736 728 733 736 739 742 747 760 760 761 758 764 765 767 766 767 780
799 795 788 783 777 771 765 758 752 745 735 729 730 729 732 730 728 726 726 728 704 704 699 696 697 702 712 720 726 729 727 728 728 731 740 743 750 764 759 748 748 749 757 761 767 768 756
798 794 788 782 777 771 765 758 752 744 736 732 736 738 736 736 729 724 732 717 707 708 701 700 701 700 710 720 730 722 721 729 727 732 737 744 757 768 760 747 744 747 746 747 749 749 750
798 794 788 783 777 772 766 759 752 745 738 736 738 737 736 735 726 727 729 717 717 711 706 703 705 705 712 719 711 722 727 733 732 734 736 740 745 760 763 745 748 765 751 743 745 751 734
797 794 790 785 779 773 768 762 754 746 741 738 738 736 735 727 725 729 722 716 715 713 711 708 711 709 713 720 720 722 726 737 738 739 740 744 756 757 745 740 742 744 739 736 743 738 734
797 794 791 787 782 775 770 764 757 752 741 743 742 740 736 718 718 723 720 727 718 716 715 715 714 712 714 716 721 722 724 729 734 740 744 745 766 754 748 739 738 739 729 728 725 725 720
797 794 791 788 784 778 772 766 761 755 750 748 746 744 743 721 716 718 716 721 720 716 721 717 715 717 720 727 724 725 725 728 730 735 742 749 757 757 743 728 731 727 717 714 716 711 710
797 794 791 788 785 780 776 771 765 761 757 754 753 751 744 727 721 717 716 717 719 719 721 722 720 721 729 725 724 724 726 730 732 735 736 747 755 757 746 741 730 702 703 705 709 701 697
797 794 791 787 785 781 776 772 767 764 761 757 754 752 748 735 719 716 717 718 721 722 722 725 726 728 726 726 727 724 728 730 727 729 736 739 751 747 739 735 716 697 697 701 705 701 692
795 793 791 788 785 781 777 773 769 765 762 759 757 756 753 746 723 717 717 717 723 725 728 727 729 730 728 728 728 728 726 724 726 732 732 737 743 744 743 735 725 698 694 693 698 703 690
794 791 788 785 784 781 778 773 770 766 763 760 758 757 754 747 728 725 718 720 717 719 727 728 730 732 732 730 733 728 728 718 723 719 732 737 740 740 737 733 721 693 691 694 703 700 688
791 788 785 783 781 779 777 773 769 767 763 761 759 757 759 752 737 728 723 718 719 720 724 729 733 733 736 734 731 730 736 724 723 711 716 723 729 731 731 732 734 688 690 697 694 687 686
788 786 784 780 778 777 774 772 769 765 763 761 759 758 757 757 742 732 725 723 722 722 721 725 726 725 728 733 740 735 733 731 722 723 704 716 705 704 713 710 689 683 686 682 685 689 688
Wind_Speed
20 21 22 21 24 24 24 24 23 24 24 24 25 26 25 24 24 23 22 21 18 18 16 13 9 8 3 7 7 3 6 15 15 15 19 12 12 10 11 8 11 12 15 11 9 9 7
21 23 23 23 25 25 25 25 25 25 25 26 25 25 25 25 24 23 23 22 19 14 17 14 10 7 5 11 5 6 6 8 12 20 18 14 7 9 5 12 8 5 9 11 13 6 8
22 24 26 25 26 25 27 27 26 24 25 27 27 27 25 24 25 26 25 22 20 21 18 14 12 9 10 12 4 6 6 4 7 20 13 17 2 3 5 4 7 5 10 10 12 11 9
23 25 27 28 29 28 29 29 28 25 24 25 24 27 27 24 25 24 26 21 21 16 20 18 13 11 6 7 9 4 7 9 5 7 22 12 6 2 2 4 1 4 9 8 10 19 13
24 27 29 30 32 32 32 30 27 24 25 25 23 24 26 25 24 21 21 19 21 23 14 19 9 9 7 7 8 13 8 10 7 3 10 10 7 3 2 1 4 7 6 10 9 5 4
24 28 30 31 32 32 32 29 28 26 26 25 23 22 23 23 20 18 17 20 18 17 13 12 8 8 8 9 9 15 12 9 9 8 8 6 3 4 3 5 5 6 8 8 8 5 3
27 29 30 31 31 32 32 30 28 27 26 25 22 21 23 21 18 18 17 10 2 6 10 5 13 2 15 14 13 11 15 12 9 9 6 9 5 7 12 13 12 12 7 10 7 6 6
28 28 29 29 32 33 32 30 28 27 26 24 22 23 21 16 20 15 15 4 4 6 5 15 16 4 15 15 9 11 18 8 7 9 6 4 8 10 8 6 5 6 8 10 10 10 7
28 30 31 32 31 31 31 29 28 26 25 23 23 23 18 19 17 18 11 16 3 13 4 8 10 12 11 7 9 14 15 10 10 9 8 6 1 11 11 6 4 7 7 8 11 11 11
28 31 31 31 31 31 29 28 27 25 26 25 23 23 20 19 14 8 9 10 9 11 3 11 9 8 9 6 6 16 14 6 5 13 8 7 6 3 8 9 6 5 2 5 8 7 4
29 31 30 29 30 29 28 28 27 27 26 24 25 27 24 17 7 7 10 9 9 5 5 13 8 13 10 6 13 11 16 4 8 8 5 4 6 6 4 5 6 3 6 5 5 6 7
29 30 29 29 28 29 28 28 27 28 26 25 29 33 34 23 14 15 13 11 9 0 2 4 6 12 13 12 5 10 8 3 3 2 9 3 5 2 6 5 4 6 2 3 4 3 4
29 29 30 28 27 28 28 28 28 27 26 28 32 36 27 11 3 9 14 4 1 3 7 7 8 13 16 12 8 13 10 7 5 5 4 6 6 3 3 4 3 5 1 1 2 3 6
28 30 29 28 27 27 28 29 30 26 28 32 35 30 16 3 3 25 11 3 4 8 3 6 13 15 9 15 7 11 11 9 10 6 6 6 5 13 9 8 5 8 5 3 5 3 4
27 31 30 28 28 27 28 28 31 26 31 35 34 19 5 7 12 22 2 2 3 6 9 10 17 6 9 12 7 9 9 7 10 10 6 5 2 9 11 5 8 4 7 2 5 5 3
27 30 30 28 28 27 28 29 31 28 34 39 15 8 5 7 15 8 1 2 5 6 15 15 5 5 9 15 8 9 12 12 10 15 10 2 1 2 7 4 6 6 5 2 1 3 5
28 29 29 27 27 27 28 30 31 32 36 30 3 1 1 6 8 1 2 3 2 18 9 1 9 8 9 13 6 8 11 3 15 12 13 3 2 3 5 8 9 5 6 3 3 4 4
26 28 28 27 26 27 28 31 31 33 39 8 3 3 3 3 1 2 1 3 7 7 1 5 4 10 11 13 5 9 9 7 12 9 11 5 2 3 9 9 13 11 8 13 4 6 5
25 27 28 26 25 26 29 31 33 35 31 6 2 1 2 4 1 1 3 3 5 5 5 3 4 5 15 12 6 8 7 5 3 5 11 8 3 2 2 3 8 6 7 12 16 11 17
24 26 27 26 25 26 28 31 35 37 29 4 1 2 1 2 3 3 2 5 4 5 10 8 7 7 12 7 1 7 7 1 5 3 8 8 3 5 3 2 3 3 6 9 10 8 13
23 25 25 25 24 26 27 30 34 38 27 5 3 2 3 1 3 3 5 4 6 4 4 5 3 5 9 4 5 6 8 8 4 5 4 1 3 4 8 13 13 12 17 17 17 18 15
21 24 24 24 24 25 26 28 31 34 26 5 2 2 4 3 5 6 3 3 4 6 7 3 5 6 3 5 7 6 6 7 5 7 5 4 3 3 10 14 16 16 17 17 18 19 19
19 21 22 23 23 23 24 26 30 31 29 5 6 4 2 3 1 5 3 6 3 3 5 7 5 4 5 8 7 4 4 4 4 7 8 4 2 2 4 7 10 7 7 6 8 12 12
18 18 19 21 22 22 23 24 25 27 29 10 4 3 2 2 4 2 2 2 4 4 6 5 4 4 1 4 4 2 4 3 4 4 6 5 4 2 4 7 2 3 9 8 9 15 12
17 17 18 19 19 20 20 21 21 23 24 22 11 5 3 3 2 1 3 3 5 4 6 5 4 3 2 3 2 3 3 3 6 10 11 6 3 2 2 3 9 1 4 2 3 6 5
17 17 17 18 19 18 18 19 19 18 21 20 5 11 3 3 1 9 4 5 5 4 3 4 3 4 2 1 2 1 1 3 4 3 3 10 5 2 1 3 3 3 3 3 4 4 2
16 17 16 16 18 18 17 17 18 18 18 17 4 12 4 2 3 7 2 4 2 1 3 3 3 2 2 1 1 1 2 3 2 5 5 3 3 7 5 3 6 6 2 4 2 5 6
16 16 16 16 17 17 17 17 17 17 16 16 8 3 7 3 7 5 8 3 2 1 3 3 2 1 1 2 2 1 1 2 3 2 5 7 6 4 3 3 6 0 4 2 3 5 5
17 17 17 17 18 18 17 16 16 15 14 13 5 11 12 4 5 9 17 13 3 3 2 3 1 2 2 3 1 1 2 3 3 3 1 3 3 3 7 5 6 3 7 4 2 3 5
Wind_Direction
346 343 337 335 333 329 329 327 327 326 325 323 325 325 324 322 317 318 316 321 307 262 230 226 234 243 229 219 259 169 162 195 206 211 214 213 205 209 227 228 235 230 246 258 256 275 305
336 331 331 330 329 325 322 322 319 316 319 318 317 318 320 320 315 317 313 315 314 293 219 218 212 218 226 239 175 162 150 179 210 201 215 228 208 227 256 243 224 196 262 258 271 257 256
334 337 332 331 324 321 320 322 315 312 316 314 315 317 318 316 313 310 314 304 308 325 215 216 200 203 230 228 185 188 196 202 213 200 206 217 122 246 11 311 315 332 300 276 257 248 240
335 335 332 327 327 326 319 324 320 318 320 315 310 310 311 313 308 305 307 297 303 302 220 202 191 207 243 211 220 198 200 202 234 251 202 188 111 83 15 31 93 253 246 261 253 218 224
335 335 336 330 330 325 326 327 328 324 317 311 310 309 308 312 308 301 307 301 298 303 257 179 173 219 232 176 188 204 203 189 166 143 150 150 145 130 79 172 236 213 267 220 255 169 179
333 336 335 335 331 328 331 330 325 322 317 316 313 310 307 309 318 307 316 311 295 288 175 165 241 187 217 203 159 180 186 188 161 156 139 161 130 162 172 185 202 224 212 254 287 142 167
340 338 335 335 334 334 332 330 328 324 323 320 316 314 311 310 319 314 322 326 281 187 193 187 169 245 146 110 134 164 179 160 184 178 183 196 199 191 194 200 236 280 301 307 311 331 321
338 336 331 335 331 334 332 331 330 329 325 324 322 318 312 307 315 306 304 251 248 13 187 241 165 151 135 150 138 170 175 141 177 188 189 163 239 217 241 279 303 266 281 283 286 285 304
338 340 336 335 335 337 336 335 334 332 327 327 320 317 317 315 315 303 252 237 224 282 255 188 196 173 152 185 141 159 183 140 174 202 160 188 72 219 240 236 231 267 264 283 290 306 315
339 339 340 341 342 340 339 339 340 337 330 325 326 325 318 317 313 302 288 261 206 251 181 160 179 154 157 202 117 155 195 160 179 202 184 237 250 212 198 223 202 251 329 325 335 340 270
339 340 344 343 342 340 340 340 339 336 331 328 326 322 313 291 251 276 303 166 143 237 156 145 149 147 164 202 120 164 202 74 179 187 148 207 221 177 218 214 206 234 68 7 346 319 341
340 341 343 343 342 341 341 341 339 333 332 330 326 320 313 297 248 245 245 143 104 56 161 122 134 169 156 148 74 142 174 43 342 212 196 148 13 261 204 205 264 63 87 221 249 264 257
340 341 342 343 344 342 343 342 340 337 331 330 329 327 322 296 222 190 157 173 165 249 169 126 147 160 162 153 120 152 164 171 160 134 190 245 207 155 280 173 165 142 131 305 236 202 237
341 341 346 345 346 344 344 343 343 337 332 331 331 333 328 354 183 152 134 81 240 110 145 178 139 143 165 153 139 167 165 188 226 234 127 188 214 181 185 218 153 193 186 213 269 235 302
344 341 346 346 346 347 345 344 345 340 331 332 333 342 17 81 144 143 172 163 276 129 134 126 130 120 131 185 135 157 181 191 204 224 210 162 256 145 156 189 219 153 206 278 309 262 270
345 343 349 349 346 348 345 346 345 340 335 332 328 340 13 82 138 102 302 20 299 120 115 147 103 176 155 183 146 171 180 196 207 196 233 29 194 157 134 191 219 187 162 79 191 258 261
346 346 350 351 347 350 348 349 348 344 338 337 70 73 120 97 135 270 1 321 247 127 158 301 135 139 143 169 159 183 176 188 195 191 207 155 253 88 75 206 192 198 233 226 340 230 235
347 349 350 352 351 350 351 352 350 347 342 27 38 76 245 331 16 310 81 252 124 57 348 68 128 133 151 154 153 178 191 263 175 157 189 176 95 223 217 231 208 207 207 216 222 236 229
349 349 351 353 354 354 354 356 353 349 357 346 52 50 352 314 186 106 293 227 70 59 26 63 66 107 139 154 139 212 115 88 108 189 167 151 198 264 282 195 221 215 226 219 234 266 250
349 348 354 355 355 356 357 359 356 356 1 32 118 71 184 219 236 47 332 67 78 350 48 62 108 120 146 164 126 163 104 122 146 149 56 151 184 213 223 145 108 270 264 257 258 258 267
351 350 355 355 359 359 1 3 1 0 4 9 6 22 9 18 148 161 291 98 63 84 46 19 80 136 139 151 105 148 133 122 166 137 144 222 246 270 263 276 282 270 267 262 250 254 256
351 350 355 355 357 358 0 6 4 7 8 53 45 343 325 297 135 158 58 15 51 58 6 27 102 94 18 84 55 165 166 172 167 167 190 178 268 330 286 260 252 256 261 259 263 263 263
349 351 353 354 357 359 -0 8 8 8 12 5 353 330 301 322 237 190 152 175 178 150 40 27 45 108 60 42 36 8 16 39 68 155 181 148 183 259 264 333 311 265 253 238 259 261 261
343 348 351 352 354 358 1 4 9 10 10 357 348 291 308 174 253 120 114 113 151 50 97 64 11 23 23 336 297 224 179 195 232 171 157 167 162 213 289 314 286 192 182 201 244 275 272
336 340 343 348 351 356 358 360 6 8 8 3 352 346 337 299 274 170 189 157 105 100 84 90 59 59 354 293 277 221 166 189 226 212 194 173 155 243 272 285 268 331 304 188 236 294 4
331 333 336 342 342 350 354 357 360 5 4 2 344 0 314 305 267 306 197 168 146 163 145 128 86 358 294 284 276 245 237 260 151 131 105 188 189 193 335 295 283 231 126 139 162 260 328
326 325 328 335 333 338 346 355 355 355 1 2 313 354 297 288 281 338 197 204 83 204 79 91 134 137 336 176 314 245 266 343 253 180 174 174 175 228 245 262 279 279 99 125 279 279 344
321 320 320 325 325 328 333 341 351 353 354 359 316 359 6 310 288 293 310 295 117 235 172 127 135 176 94 156 226 149 253 284 291 303 188 174 176 196 180 228 274 173 334 327 269 312 329
318 319 318 320 321 322 323 327 335 345 347 352 325 321 331 237 278 299 280 290 347 0 125 169 52 131 89 93 22 343 298 328 4 283 25 266 234 174 181 213 249 252 210 240 108 287 309